This is the latest recevied weather packets stored in our database for station/object WX7EM. If no packets are shown the sender has not sent any weather packets the latest 1 day(s).
| Time | Temp. | Humidity | Pressure | Rain* | Wind** | Luminosity | Snow |
|---|---|---|---|---|---|---|---|
| 1778026016 | 17.78° C | 70% | 1014.8 hPa | 0 mm | 0.45 m/s, 7° | 157 W/m² | - |
| 1778025714 | 18.33° C | 71% | 1014.7 hPa | 0 mm | 0.45 m/s, 64° | 232 W/m² | - |
| 1778025411 | 18.33° C | 70% | 1014.8 hPa | 0 mm | 0.45 m/s, 73° | 242 W/m² | - |
| 1778025109 | 18.33° C | 71% | 1014.8 hPa | 0 mm | 0 m/s | 260 W/m² | - |
| 1778024805 | 17.78° C | 72% | 1015 hPa | 0 mm | 0.45 m/s, 121° | 269 W/m² | - |
| 1778024502 | 17.22° C | 74% | 1014.8 hPa | 0 mm | 0 m/s | 275 W/m² | - |
| 1778024199 | 17.22° C | 75% | 1015 hPa | 0 mm | 0.89 m/s, 256° | 277 W/m² | - |
| 1778023897 | 17.22° C | 74% | 1015 hPa | 0 mm | 0 m/s | 267 W/m² | - |
| 1778023594 | 17.22° C | 75% | 1015.1 hPa | 0 mm | 0.45 m/s, 152° | 253 W/m² | - |
| 1778023292 | 16.67° C | 76% | 1015.2 hPa | 0 mm | 0.45 m/s, 199° | 226 W/m² | - |
| 1778022988 | 16.67° C | 75% | 1015.2 hPa | 0 mm | 1.34 m/s, 252° | 206 W/m² | - |
| 1778022687 | 16.67° C | 75% | 1015.2 hPa | 0 mm | 0.45 m/s, 171° | 194 W/m² | - |
| 1778022385 | 16.67° C | 75% | 1015.2 hPa | 0 mm | 0.45 m/s, 156° | 216 W/m² | - |
| 1778022080 | 16.67° C | 76% | 1015.3 hPa | 0 mm | 0.45 m/s, 133° | 231 W/m² | - |
| 1778021777 | 16.67° C | 76% | 1015.3 hPa | 0 mm | 0 m/s | 224 W/m² | - |
| 1778021474 | 16.67° C | 76% | 1015.2 hPa | 0 mm | 1.34 m/s, 220° | 207 W/m² | - |
| 1778021170 | 16.67° C | 75% | 1015.3 hPa | 0 mm | 0.45 m/s, 134° | 198 W/m² | - |
| 1778020868 | 16.67° C | 75% | 1015.1 hPa | 0 mm | 0.89 m/s, 97° | 193 W/m² | - |
| 1778020565 | 16.67° C | 76% | 1015.3 hPa | 0 mm | 0 m/s | 188 W/m² | - |
| 1778020261 | 16.67° C | 76% | 1015.4 hPa | 0 mm | 0 m/s | 190 W/m² | - |
| 1778019957 | 16.67° C | 75% | 1015.4 hPa | 0 mm | 0.89 m/s, 275° | 215 W/m² | - |
| 1778019654 | 16.67° C | 75% | 1015.5 hPa | 0 mm | 0.45 m/s, 114° | 228 W/m² | - |
| 1778019351 | 16.67° C | 75% | 1015.3 hPa | 0 mm | 0 m/s | 245 W/m² | - |
| 1778019047 | 16.11° C | 76% | 1015.4 hPa | 0 mm | 0.45 m/s, 151° | 246 W/m² | - |
| 1778018745 | 16.67° C | 75% | 1015.4 hPa | 0 mm | 0.89 m/s, 195° | 256 W/m² | - |
* Rain latest hour (hover to see other rain measurements)
** Current wind speed in m/s (hover to see current wind gust speed)